Simultaneous Nadir Overpasses (SNOs) Predictions

Prediction of SNOs between AURA and NPP Satellite Orbit:

Table of predicted SNOs for the next 14.0 days since TLE Epoch: 11/13/2011
Index Date Time (AURA) AURA Lat,Lon NPP Lat,Lon Distance(km) Time Diff (sec)
1 11/14/2011 02:02:02 79.42, 46.02 79.43, 46.10 1.80 22
2 11/14/2011 02:51:22 -79.68,-144.46 -79.69,-144.38 1.81 53
3 11/16/2011 19:57:25 79.36, 136.73 79.35, 136.65 1.59 25
4 11/16/2011 20:46:45 -79.62, -53.77 -79.62, -53.85 1.65 50
5 11/19/2011 13:52:45 79.34,-132.20 79.34,-132.26 1.32 31
6 11/19/2011 14:42:05 -79.61, 37.31 -79.60, 37.24 1.45 44
7 11/22/2011 07:48:00 79.42, -40.50 79.42, -40.38 2.61 40
8 11/22/2011 08:37:21 -79.65, 128.77 -79.65, 128.89 2.40 35
9 11/25/2011 01:43:21
